Location: East Massapequa
(40.6734°N, 73.4365°W)
Time: 00:37:38
(UTC+00:00)

Daily predictions for brighter satellites

Satellite Brightness Start Highest point End
(mag) Time Altitude Azimuth Time Altitude Azimuth Time Altitude Azimuth
Cosmos 1975 Rocket 3.0 00:00:47 10° N 00:05:08 89° W 00:09:27 10° S
Cosmos 2084 Rocket 3.6 00:01:57 10° NW 00:06:26 86° SW 00:10:14 15° SSE
Cosmos 1072 Rocket 4.5 00:02:19 10° S 00:08:27 66° E 00:14:42 10° NNE
Cosmos 1707 2.9 00:04:52 10° N 00:08:36 49° E 00:11:20 17° SSE
SJ-6B 3.6 00:08:41 26° E 00:09:32 28° ENE 00:12:47 10° N
Resurs 01 Rocket 3.6 00:12:00 13° ENE 00:12:00 13° ENE 00:13:44 10° NE
Nadezhda 4 Rocket 4.4 00:08:52 10° N 00:14:36 40° ENE 00:18:32 19° SE
Cosmos 2034 Rocket 4.2 00:08:42 10° SSE 00:14:45 48° E 00:20:49 10° NNE
Abrixas rocket 4.2 00:12:42 10° NW 00:14:48 18° N 00:16:22 13° NNE
Sich 1 Rocket 3.7 00:12:59 10° S 00:17:26 78° W 00:22:00 10° N
ISS -3.6 00:14:52 10° WSW 00:18:13 72° NW 00:20:13 22° NE
H-2A R/B 2.3 00:15:47 10° S 00:20:41 68° WSW 00:25:43 10° NNW
In-Cosmos 22 4.1 00:17:25 10° N 00:22:38 56° ENE 00:26:19 19° SSE
ARGOS 3.1 00:19:07 10° SSE 00:24:29 85° WSW 00:29:53 10° NNW
Cosmos 1174 4.4 00:22:39 10° SSW 00:27:15 63° ESE 00:33:07 10° NE
SL-08 RB Rocket 3.6 00:27:10 16° SSE 00:30:52 83° ENE 00:35:27 10° N
CZ-2C R/B 2.6 00:25:29 10° NNE 00:31:01 66° E 00:36:35 10° S
Cosmos 1048 Rocket 4.5 00:28:39 10° N 00:33:42 42° ENE 00:34:59 36° E
MOS 1 4.3 00:31:18 23° SSE 00:34:56 65° ENE 00:40:35 10° N
Milstar 3 Cent rocket 3.8 00:33:16 10° SSW 00:36:52 16° S 00:37:15 16° SSE
Okean 2 Rocket 3.2 00:32:45 10° SSW 00:37:14 75° W 00:41:45 10° N
Lacrosse 5 rocket 4.3 00:36:14 10° NNW 00:37:38 11° NNW 00:39:03 10° N
Cosmos 1844 3.9 00:32:28 10° S 00:37:55 47° ESE 00:43:19 10° NE
Okean 1 Rocket 4.3 00:42:46 27° NE 00:42:46 27° NE 00:45:15 10° NNE
ATLAS 2AS CENTAUR R/B 3.8 00:35:36 10° SSE 00:46:15 20° ENE 00:48:57 10° NE
Cosmos 2263 Rocket 4.2 00:37:38 10° WSW 00:42:22 28° NW 00:47:09 10° N
DELTA 2 R/B (1) 4.2 00:39:48 10° W 00:45:04 46° SSW 00:46:52 34° SSE
Cosmos 1634 Rocket 4.4 00:48:16 38° E 00:48:16 38° E 00:53:51 10° NNE
Cosmos 1844 Rocket 2.5 00:43:36 10° SSW 00:49:07 74° ESE 00:54:43 10° NNE
Cosmos 1300 Rocket 4.2 00:45:02 10° SSW 00:49:20 56° W 00:53:41 10° N
Resurs 1-3 4.0 00:50:10 45° NE 00:50:10 45° NE 00:53:57 10° N
Cosmos 2285 Rocket 4.0 00:47:06 10° S 00:53:12 57° ESE 00:59:24 10° NNE
Ariane Rocket 3.1 00:50:37 24° S 00:53:42 74° WSW 00:58:47 10° NNW
USA 186 2.9 00:54:52 39° WSW 00:55:05 39° W 00:58:06 10° NNW
CENTAUR R/B 3.6 00:49:28 10° NNW 00:57:14 47° NE 01:00:06 36° E
Exosat Rocket 3.5 00:55:31 10° SSW 01:01:29 75° ESE 01:06:29 10° NNE
ATLAS 3B R/B 4.2 00:57:55 10° NNW 01:02:49 20° NNE 01:04:32 19° NE
Meteor 1-15 Rocket 4.1 00:58:30 10° S 01:04:05 88° ESE 01:09:49 10° N
Cosmos 2298 Rocket 4.5 00:59:08 10° SSW 01:04:23 61° WNW 01:09:41 10° NNE
SPOT 3 Rocket 3.5 01:05:38 64° ENE 01:05:41 64° ENE 01:10:48 10° N
USA 238 DEB 3.9 00:58:42 10° NNW 01:05:57 67° NE 01:07:59 49° ESE
Cosmos 494 Rocket 4.3 01:00:53 10° N 01:05:42 51° NE 01:05:42 51° NE
USA 238 3.9 00:58:49 10° NNW 01:06:03 67° NE 01:08:04 49° ESE
Cosmos 1536 Rocket 3.9 01:04:48 10° NNW 01:09:12 63° W 01:09:58 52° SW
MetOp-A 4.3 01:07:54 36° S 01:10:04 69° WSW 01:15:26 10° NNW
OBJECT-B 3.1 01:14:10 21° NNW 01:14:10 21° NNW 01:15:22 10° NNW
Cosmos 1092 Rocket 3.8 01:07:11 10° N 01:13:22 73° E 01:14:15 63° SE
Cosmos 2195 Rocket 4.3 01:10:12 10° N 01:16:27 68° E 01:16:53 66° ESE
Cosmos 1867 4.4 01:14:45 10° NW 01:19:55 44° WSW 01:21:23 36° SSW
Meteor 2-13 Rocket 4.3 01:14:06 10° N 01:20:18 86° E 01:21:15 66° SSE
Cosmos 2026 Rocket 4.0 01:14:18 10° N 01:20:37 63° E 01:20:37 63° E
CZ-2C R/B 3.7 01:21:43 10° WSW 01:22:04 12° WSW 01:22:04 12° WSW
Cosmos 1674 4.5 01:26:47 10° NNW 01:29:01 30° NW 01:29:01 30° NW
Cosmos 1428 Rocket 4.4 01:26:33 10° N 01:32:24 71° NE 01:32:24 71° NE
NOSS 3-2 (A) 4.1 01:26:29 10° NW 01:34:14 82° WSW 01:36:10 58° SSE
Meteor 2-5 Rocket 3.8 01:32:55 10° N 01:38:03 74° NNW 01:38:03 74° NNW
BREEZE-M DEB (TANK) 4.0 01:37:04 10° WNW 01:41:17 65° SSW 01:42:24 58° S
Resurs 01 Rocket 3.3 01:49:35 31° NNW 01:49:35 31° NNW 01:52:02 10° NNW
USA 234 3.7 01:42:45 10° NE 01:49:07 57° NW 01:55:30 10° WSW
Cosmos 2082 Rocket 4.2 01:50:01 10° N 01:52:04 17° NNE 01:52:04 17° NNE
ISS -0.2 01:53:07 10° WNW 01:53:13 10° WNW 01:53:13 10° WNW
COSMOS 2406 4.5 01:57:17 10° NNW 02:00:31 33° N 02:00:31 33° N
NOSS 3-2 (C) 4.0 02:00:47 10° NW 02:08:31 78° WSW 02:08:32 78° WSW
ATLAS 2AS CENTAUR R/B 3.3 02:24:57 10° SW 02:33:17 63° NW 02:40:41 10° NNE
CENTAUR R/B 3.8 02:40:13 10° NW 02:47:17 49° W 02:47:17 49° W
ATLAS 3B R/B 3.8 02:47:44 10° NNW 02:51:46 38° NNW 02:51:46 38° NNW
ADEOS II 4.4 06:39:32 10° NNE 06:41:15 20° NE 06:41:15 20° NE
ATLAS 5 CENTAUR R/B 4.5 07:12:31 12° N 07:12:31 12° N 07:13:01 10° NNE
CZ-2D R/B 4.3 07:04:38 10° N 07:06:00 18° N 07:06:00 18° N
Resurs 1-4 Rocket 4.3 07:17:56 10° N 07:19:11 17° N 07:19:11 17° N
Cosmos 1697 Rocket 3.4 07:37:49 49° NE 07:37:49 49° NE 07:41:53 10° NNE
Cosmos 1980 Rocket 3.0 07:40:43 44° E 07:40:43 44° E 07:45:54 10° NE
Spot 4 Rocket 4.2 07:56:18 10° NNE 08:01:10 67° E 08:01:10 67° E
USA 267 3.6 07:57:19 10° NE 08:03:36 51° NNW 08:04:18 49° NW
Cosmos 1515 Rocket 4.5 08:06:38 45° NNE 08:06:38 45° NNE 08:09:49 10° NNE
CZ-2C R/B 4.4 08:02:17 10° NNE 08:04:41 32° NE 08:04:41 32° NE
Lacrosse 5 2.5 08:09:35 48° N 08:09:35 48° N 08:13:45 10° NE
Cosmos 1238 Rocket 4.5 08:03:43 10° N 08:10:16 60° E 08:16:15 10° SSE
Cosmos 1821 Rocket 3.8 08:04:06 10° NNW 08:10:12 72° W 08:10:12 72° W
Cosmos 1777 Rocket 4.1 08:07:12 10° NNW 08:11:45 67° N 08:11:45 67° N
Cosmos 921 Rocket 4.1 08:18:19 35° SE 08:18:59 38° E 08:22:51 10° NNE
Cosmos 44 3.3 08:20:09 67° E 08:20:09 67° E 08:24:21 10° NE
CZ-4C R/B 4.1 08:23:39 45° ENE 08:23:39 45° ENE 08:26:55 10° N
ADEOS II 3.7 08:19:39 10° N 08:22:10 21° NW 08:22:10 21° NW
Cosmos 2228 Rocket 3.6 08:23:49 48° SE 08:24:37 57° E 08:28:56 10° NNE
Cosmos 1934 Rocket 3.8 08:18:55 10° N 08:25:00 87° E 08:31:05 10° S
Cosmos 1933 Rocket 3.9 08:21:53 10° N 08:25:24 57° N 08:25:24 57° N
Nadezhda 3 Rocket 4.3 08:32:55 43° WNW 08:32:55 43° WNW 08:38:34 10° N
ADEOS Rocket 4.4 08:28:11 10° SE 08:34:37 43° ENE 08:40:29 10° N
Cosmos 2278 3.7 08:34:00 56° W 08:34:42 61° WNW 08:40:22 10° NNE
IDEFIX/ARIANE 42P 2.7 08:31:37 10° N 08:36:44 52° WNW 08:36:52 52° WNW
Meteor 1-4 Rocket 4.3 08:35:16 20° SE 08:36:57 30° E 08:40:03 10° NNE
USA 234 3.2 08:30:30 10° SE 08:37:02 88° NE 08:43:36 10° NW
X-37B 2.2 08:38:14 32° NNE 08:38:14 32° NNE 08:40:37 10° ENE
MSX 3.7 08:33:52 10° N 08:39:39 74° WNW 08:41:47 40° SSW
Timation 1 Rocket 4.2 08:34:37 10° NNW 08:40:39 84° WSW 08:46:39 10° SSE
Cosmos 2369 4.4 08:42:33 35° WNW 08:42:52 36° WNW 08:48:08 10° N
ARIANE 5 R/B 3.4 08:39:13 10° N 08:43:09 32° NW 08:43:09 32° NW
Cosmos 1869 Rocket 4.3 08:41:01 10° N 08:45:17 53° E 08:49:30 10° SSE
Cosmos 389 Rocket 4.0 08:47:50 26° NNW 08:47:50 26° NNW 08:49:39 10° N
CZ-3B R/B 3.9 08:44:41 17° NNW 08:46:18 21° N 08:52:09 10° NE
USA 305 4.1 08:47:19 29° NW 08:47:37 29° NNW 08:51:23 10° NE
Cosmos 1605 Rocket 4.0 08:41:50 10° N 08:48:16 85° E 08:54:40 10° S
Cosmos 1535 Rocket 4.5 08:42:50 10° NNW 08:49:08 65° W 08:55:26 10° S
USA 306 4.1 08:51:15 27° NW 08:51:45 28° NNW 08:55:26 10° NNE
ERS-2 2.6 08:52:43 10° SSE 08:56:20 62° ENE 08:59:57 10° N
SJ 16-02 1.8 08:55:48 10° NNW 09:00:10 64° ENE 09:04:31 10° SSE
PSLV R/B 3.3 08:58:28 10° N 09:02:41 83° WNW 09:05:14 23° SSW
H-2A R/B 2.0 08:58:27 10° S 09:02:44 61° WSW 09:07:08 10° NNW
Cosmos 1763 Rocket 4.0 08:59:24 10° S 09:04:38 63° ESE 09:09:53 10° NNE
ASTEX 1 4.5 09:09:57 10° NNW 09:13:58 25° WNW 09:14:18 25° W
Cosmos 1812 2.8 09:12:50 32° SW 09:14:18 52° W 09:18:05 10° N
Cosmos 2360 Rocket 3.9 09:09:38 10° SSE 09:14:36 32° ESE 09:19:35 10° NE
CZ-2C R/B 2.5 09:12:25 10° N 09:17:30 67° WNW 09:22:37 10° SSW
BREEZE-M DEB (TANK) 3.8 09:17:25 25° WNW 09:18:47 38° N 09:24:58 10° ENE
Cosmos 1727 Rocket 4.0 09:12:34 10° S 09:18:56 81° W 09:25:19 10° N
BREEZE-M DEB (TANK) 3.0 09:13:56 21° WSW 09:19:21 89° SSE 09:22:34 10° ENE
Cosmos 1697 Rocket 4.3 09:19:35 16° WNW 09:20:53 17° NW 09:24:27 10° N
SL-8 R/B 4.0 09:17:58 14° NW 09:22:03 65° NNE 09:26:47 10° ESE
Cosmos 1500 3.5 09:18:49 10° NNW 09:22:27 41° W 09:26:03 10° SSW
ERBS 2.4 09:21:44 35° WSW 09:22:51 55° NW 09:26:11 10° NE
SL-4 R/B 2.9 09:19:51 17° SSW 09:23:11 54° SE 09:27:51 10° ENE
PAYLOAD A 4.0 09:18:41 10° N 09:23:12 48° WNW 09:26:52 15° SW
Cosmos 1980 Rocket 3.2 09:22:31 22° W 09:24:42 27° NW 09:29:31 10° N
CZ-4B R/B 1.4 09:23:05 10° SSE 09:26:10 73° ENE 09:29:21 10° N
Cosmos 1666 2.6 09:24:34 10° N 09:28:24 86° W 09:32:10 10° S
Landsat 5 4.4 09:24:50 10° SSW 09:28:50 31° W 09:32:52 10° NW
Cosmos 990 Rocket 4.0 09:24:00 10° NNW 09:29:13 87° ENE 09:34:26 10° SSE
Cosmos 468 Rocket 4.0 09:24:20 10° SSW 09:29:36 69° WNW 09:34:54 10° NNE
Cosmos 2322 Rocket 2.3 09:24:16 10° SSW 09:29:55 83° ESE 09:35:39 10° NNE
BREEZE M DEB (TANK) 3.4 09:17:57 10° WNW 09:30:05 79° SW 09:33:48 10° SE
FENGYUN 3A 4.0 09:26:17 10° NNE 09:31:40 69° ESE 09:37:02 10° S
Meteor 1-10 Rocket 4.5 09:26:17 10° SSW 09:31:51 51° WNW 09:37:33 10° N
Cosmos 44 Rocket 4.4 09:30:58 10° S 09:35:23 43° ESE 09:39:56 10° NE
Cosmos 2263 Rocket 2.2 09:30:06 10° NNW 09:35:40 62° WSW 09:41:15 10° S
Cosmos 540 Rocket 4.0 09:32:13 10° S 09:37:17 62° ESE 09:42:24 10° NNE
SL-16 R/B 2.2 09:32:09 10° SSW 09:37:47 70° WNW 09:43:28 10° NNE
Cosmos 1459 Rocket 4.0 09:38:03 10° N 09:44:10 84° E 09:50:13 10° S
Cosmos 2227 4.4 09:42:13 10° NW 09:47:35 45° WSW 09:52:52 10° S
deb Chang Zheng 4 3.6 09:44:37 10° N 09:48:50 56° WNW 09:53:00 10° SSW
CZ-4B R/B 3.6 09:46:32 10° NNE 09:50:08 50° E 09:53:36 10° S
CZ-4B R/B 4.1 09:46:08 10° N 09:50:29 85° WNW 09:54:55 10° SSW
SAR-Lupe-4 3.6 09:48:49 10° S 09:52:21 59° W 09:55:55 10° NNW
Lacrosse 5 3.8 09:49:26 10° WNW 09:52:45 17° NNW 09:56:04 10° NNE
Cosmos 1707 Rocket 4.1 09:52:39 10° SW 09:56:39 37° WNW 10:00:42 10° N
Cosmos 1898 Rocket 3.6 09:53:16 10° NNW 09:58:24 56° WSW 10:03:33 10° S
Cosmos 1743 3.3 09:57:43 10° N 10:01:30 60° E 10:05:15 10° SSE
Okean 1 4.1 09:58:09 10° S 10:02:07 58° E 10:06:06 10° NNE
Cosmos 2208 Rocket 4.1 09:59:19 10° SSW 10:04:35 88° ESE 10:09:50 10° NNE
SAR-Lupe-1 4.4 10:01:17 10° S 10:04:40 41° W 10:08:05 10° NNW
PSLV R/B 4.1 10:01:01 10° SSE 10:05:02 80° ENE 10:09:08 10° N
Cosmos 2219 Rocket 4.3 10:01:26 10° SSE 10:06:19 31° ESE 10:11:13 10° NE
ATLAS 2AS CENTAUR R/B 3.4 09:59:37 10° NNW 10:07:01 61° NE 10:13:46 10° SE
Cosmos 1689 Rocket 2.0 10:07:17 10° S 10:10:12 63° W 10:13:08 10° NNW
ADEOS 4.1 10:07:07 10° N 10:11:56 39° WNW 10:16:43 10° SW
Meteor 1-4 Rocket 4.4 10:10:20 10° W 10:12:05 13° WNW 10:13:52 10° NW
USA 281 4.3 10:07:21 10° NE 10:13:42 49° ESE 10:20:00 10° S
SKYMED 2 3.6 10:09:36 10° SSE 10:13:56 87° WSW 10:18:19 10° NNW
PKM 4.0 10:10:42 10° NW 10:14:11 89° WSW 10:18:49 10° SE
Cosmos 2333 Rocket 3.8 10:09:02 10° S 10:14:21 40° ESE 10:19:42 10° NE
Cosmos 372 Rocket 4.4 10:09:24 10° NNW 10:14:33 68° ENE 10:19:38 10° SSE
X-37B 1.1 10:11:27 10° WNW 10:14:36 56° NNE 10:17:44 10° E
Cosmos 2173 Rocket 4.2 10:08:27 10° NNW 10:14:37 55° W 10:20:47 10° SSW
Okean 1-7 4.3 10:10:59 10° SSE 10:15:04 47° E 10:19:09 10° NNE
